Weather History for Cape Cod CGAS, MA

Change the Weather History Date:

Wednesday, February 19, 2014

  Actual Average Record
Temperature  
Mean Temperature 30 °F -  
Max Temperature 43 °F 37 °F 53 °F (1997)
Min Temperature 17 °F 21 °F 8 °F (2006)
Degree Days  
Heating Degree Days 35    
Moisture  
Dew Point 28 °F    
Average Humidity 85    
Maximum Humidity 100    
Minimum Humidity 63    
Precipitation  
Precipitation 0.08 in - - ()
Sea Level Pressure  
Sea Level Pressure 29.96 in    
Wind  
Wind Speed 10 mph (South)    
Max Wind Speed 23 mph    
Max Gust Speed 32 mph    
Visibility 8 miles    
Events Fog , Rain    
Averages and records for this station are not official NWS values.
T = Trace of Precipitation, MM = Missing Value Source: NWS Daily Summary

Daily Weather History Graph

Daily Weather History Graph

Search for Another Location

Airport:

Trip Planner

Search our weather history database for the weather conditions in past years. The results will help you decide how hot, cold, wet, or windy it might be!

Date:

Astronomy

Feb. 19, 2014 Rise Set
Actual Time 6:31 AM EST 5:20 PM EST
Civil Twilight 6:03 AM EST 5:48 PM EST
Nautical Twilight 5:31 AM EST 6:21 PM EST
Astronomical Twilight 4:59 AM EST 6:53 PM EST
Moon 10:15 PM EST (2/19) 8:31 AM EST (2/19)
Length of Visible Light 11h 45m
Length of Day
10h 48m
Waning Gibbous, 80% of the Moon is Illuminated
Feb 19
Waning Gibbous
Feb 22
Last Quarter
Mar 1
New
Mar 8
First Quarter
Mar 16
Full

Hourly Weather History & Observations

Time (EST) Temp. Windchill Dew Point Humidity Pressure Visibility Wind Dir Wind Speed Gust Speed Precip Events Conditions
12:15 AM 28.4 °F 18.0 °F 23.0 °F 80% 30.03 in 10.0 mi WNW 12.7 mph 19.6 mph N/A   Clear
12:55 AM 28.4 °F 18.5 °F 23.0 °F 80% 30.06 in 10.0 mi West 11.5 mph - N/A   Clear
1:15 AM 28.4 °F 19.1 °F 23.0 °F 80% 30.06 in 10.0 mi West 10.4 mph - N/A   Clear
1:35 AM 26.6 °F 18.2 °F 23.0 °F 86% 30.05 in 10.0 mi WNW 8.1 mph - N/A   Clear
1:55 AM 26.6 °F 18.2 °F 21.2 °F 80% 30.07 in 10.0 mi West 8.1 mph - N/A   Clear
2:15 AM 26.6 °F 18.2 °F 21.2 °F 80% 30.08 in 10.0 mi West 8.1 mph - N/A   Clear
2:35 AM 26.6 °F 19.1 °F 21.2 °F 80% 30.09 in 10.0 mi West 6.9 mph - N/A   Clear
2:55 AM 26.6 °F 18.2 °F 21.2 °F 80% 30.09 in 10.0 mi West 8.1 mph - N/A   Partly Cloudy
3:15 AM 26.6 °F 16.8 °F 23.0 °F 86% 30.09 in 10.0 mi West 10.4 mph - N/A   Mostly Cloudy
3:35 AM 26.6 °F 18.2 °F 21.2 °F 80% 30.10 in 10.0 mi West 8.1 mph - N/A   Mostly Cloudy
3:55 AM 26.6 °F 20.0 °F 21.2 °F 80% 30.10 in 10.0 mi West 5.8 mph - N/A   Mostly Cloudy
4:15 AM 24.8 °F 19.1 °F 21.2 °F 86% 30.11 in 10.0 mi West 4.6 mph - N/A   Scattered Clouds
4:35 AM 24.8 °F 19.1 °F 21.2 °F 86% 30.10 in 10.0 mi WNW 4.6 mph - N/A   Partly Cloudy
4:55 AM 24.8 °F - 21.2 °F 86% 30.10 in 10.0 mi Calm Calm - N/A   Scattered Clouds
5:15 AM 23.0 °F - 19.4 °F 86% 30.10 in 10.0 mi Calm Calm - N/A   Scattered Clouds
5:35 AM 23.0 °F - 21.2 °F 93% 30.10 in 10.0 mi Calm Calm - N/A   Clear
5:55 AM 19.4 °F - 19.4 °F 100% 30.09 in 5.0 mi Calm Calm - N/A   Clear
6:15 AM 21.2 °F - 19.4 °F 93% 30.08 in 4.0 mi Calm Calm - N/A   Clear
6:35 AM 17.6 °F - 15.8 °F 93% 30.09 in 3.0 mi Calm Calm - N/A   Clear
6:55 AM 19.4 °F 14.3 °F 17.6 °F 93% 30.07 in 0.2 mi ESE 3.5 mph - N/A Fog Light Freezing Fog
7:15 AM 19.4 °F - 17.6 °F 93% 30.07 in 3.0 mi Calm Calm - N/A   Clear
7:35 AM 21.2 °F - 19.4 °F 93% 30.07 in 8.0 mi Calm Calm - N/A   Clear
7:55 AM 19.4 °F - 19.4 °F 100% 30.08 in 8.0 mi Calm Calm - N/A   Clear
8:15 AM 23.0 °F 15.8 °F 21.2 °F 93% 30.06 in 9.0 mi East 5.8 mph - N/A   Clear
8:35 AM 26.6 °F 17.5 °F 26.6 °F 100% 30.05 in 10.0 mi ESE 9.2 mph - N/A   Clear
8:55 AM 30.2 °F 21.3 °F 26.6 °F 86% 30.05 in 10.0 mi SE 10.4 mph - N/A   Clear
9:15 AM 32.0 °F 23.0 °F 24.8 °F 75% 30.05 in 10.0 mi SSE 11.5 mph - N/A   Clear
9:35 AM 32.0 °F 23.6 °F 24.8 °F 75% 30.05 in 10.0 mi SSE 10.4 mph - N/A   Clear
9:55 AM 33.8 °F 23.2 °F 24.8 °F 70% 30.04 in 10.0 mi SE 17.3 mph - N/A   Clear
10:15 AM 33.8 °F 24.3 °F 26.6 °F 75% 30.04 in 10.0 mi SSE 13.8 mph 19.6 mph N/A   Clear
10:35 AM 33.8 °F 24.3 °F 28.4 °F 81% 30.03 in 10.0 mi SSE 13.8 mph - N/A   Clear
10:55 AM 33.8 °F 23.5 °F 28.4 °F 81% 30.01 in 10.0 mi SE 16.1 mph - N/A   Clear
11:15 AM 35.6 °F 26.2 °F 28.4 °F 75% 29.98 in 10.0 mi SE 15.0 mph 20.7 mph N/A   Clear
11:35 AM 35.6 °F 25.5 °F 28.4 °F 75% 29.96 in 10.0 mi SE 17.3 mph 24.2 mph N/A   Clear
11:55 AM 35.6 °F 26.2 °F 30.2 °F 81% 29.94 in 10.0 mi SE 15.0 mph 23.0 mph N/A   Clear
12:15 PM 35.6 °F 26.2 °F 30.2 °F 81% 29.93 in 10.0 mi SE 15.0 mph - N/A   Scattered Clouds
12:35 PM 37.4 °F 28.2 °F 32.0 °F 81% 29.91 in 10.0 mi SE 16.1 mph - N/A   Scattered Clouds
12:55 PM 37.4 °F 28.2 °F 32.0 °F 81% 29.90 in 9.0 mi SE 16.1 mph - N/A   Mostly Cloudy
1:15 PM 37.4 °F 28.2 °F 32.0 °F 81% 29.88 in 10.0 mi SE 16.1 mph - N/A   Overcast
1:35 PM 37.4 °F 28.5 °F 32.0 °F 81% 29.86 in 9.0 mi SE 15.0 mph - N/A   Overcast
1:55 PM 37.4 °F 30.3 °F 32.0 °F 81% 29.83 in 9.0 mi ESE 10.4 mph - N/A   Overcast
2:15 PM 37.4 °F 28.5 °F 33.8 °F 87% 29.81 in 10.0 mi SE 15.0 mph - N/A   Overcast
2:35 PM 37.4 °F 28.2 °F 33.8 °F 87% 29.78 in 9.0 mi SE 16.1 mph 21.9 mph N/A   Mostly Cloudy
2:55 PM 39.2 °F 30.2 °F 33.8 °F 81% 29.78 in 9.0 mi SE 17.3 mph 25.3 mph N/A   Mostly Cloudy
3:15 PM 39.2 °F 29.8 °F 35.6 °F 87% 29.76 in 7.0 mi SE 18.4 mph 28.8 mph N/A   Overcast
3:35 PM 41.0 °F 31.1 °F 39.2 °F 93% 29.72 in 5.0 mi SE 23.0 mph 32.2 mph N/A   Overcast
3:55 PM 41.0 °F 32.5 °F 39.2 °F 93% 29.71 in 6.0 mi SSE 17.3 mph 27.6 mph N/A   Overcast
4:15 PM 39.2 °F 30.8 °F 39.2 °F 100% 29.70 in 3.0 mi SSE 15.0 mph - N/A Rain Light Rain
4:35 PM 39.2 °F 31.2 °F 39.2 °F 100% 29.69 in 1.8 mi South 13.8 mph - N/A   Overcast
4:55 PM 41.0 °F 32.2 °F 41.0 °F 100% 29.68 in 1.8 mi South 18.4 mph 25.3 mph N/A   Overcast
5:15 PM 41.0 °F 34.3 °F 41.0 °F 100% 29.68 in 0.8 mi South 11.5 mph - N/A   Overcast
5:35 PM 42.8 °F 38.0 °F 41.0 °F 93% 29.67 in 0.2 mi South 8.1 mph - N/A Rain Light Rain
5:55 PM 42.8 °F 36.2 °F 42.8 °F 100% 29.67 in 0.2 mi SSW 12.7 mph 18.4 mph N/A Rain Light Rain